Regional Weather Roundup
Issued by NWS San Diego, CA

Home | Current Version | Previous Version | Text Only | Print | Product List | Glossary On
Versions: 1 2 3 4 5 6 7 8 9 10 11 12 13 14 15 16 17 18 19 20 21 22 23 24 25 26 27 28 29 30 31 32 33 34 35 36 37 38 39 40 41 42 43 44 45 46 47 48 49 50
000
ASUS46 KSGX 190411
RWRSGX

SAN DIEGO HOURLY WEATHER ROUNDUP
NATIONAL WEATHER SERVICE SAN DIEGO CA
900 PM PDT SAT APR 18 2015

NOTE: "FAIR" INDICATES FEW OR NO CLOUDS BELOW 12,000 FEET WITH NO
SIGNIFICANT WEATHER AND/OR OBSTRUCTIONS TO VISIBILITY.

CAZ042-043-060-061-PZZ750-775-190500-

GREATER SAN DIEGO AREA

CITY           SKY/WX    TMP DP  RH WIND       PRES   REMARKS
LINDBERGH FLD  PTCLDY    65  57  75 W5        29.98R
POINT LOMA       N/A     59  56  88 NW9         N/A
CHULA VISTA      N/A     66  56  71 CALM      29.90R
IMPERIAL BEACH CLEAR     63  58  83 W7        29.98R
BROWN FIELD    CLEAR     62  50  64 W5        29.97R
MIRAMAR MCAS   CLEAR     61  53  75 W6        29.97R
MONTGOMERY FLD CLEAR     64  53  67 W6        29.97R

$$

NORTH SAN DIEGO COUNTY

CITY           SKY/WX    TMP DP  RH WIND       PRES   REMARKS
CAMP PENDLETON CLEAR     60  54  80 CALM      29.96R HAZE
OCEANSIDE AP   PTCLDY    59  54  83 CALM      29.95R
VISTA            N/A     62  56  79 CALM      29.95R
CARLSBAD       CLEAR     62  56  80 SW5       29.96R
FALLBROOK        N/A     60  57  90 CALM      29.95R
SAN MARCOS       N/A     63  56  77 CALM      29.94R
POWAY            N/A     64  51  63 CALM      29.97R

$$

EAST SAN DIEGO COUNTY

CITY           SKY/WX    TMP DP  RH WIND       PRES   REMARKS
RAMONA         CLEAR     58  38  47 CALM      29.98R
SANTEE LAKES     N/A     64  46  52 CALM      29.96R
LA MESA          N/A     65  42  43 CALM      29.91R
DESCANSO N       N/A     51  28  41 NE3       29.86R
MT. LAGUNA OBS   N/A     51  16  24 NW3       29.67R
CAMPO            N/A     58  27  30 CALM      29.98R

$$

ORANGE COUNTY AND THE LOS ANGELES BASIN

CITY           SKY/WX    TMP DP  RH WIND       PRES   REMARKS
JOHN WAYNE AP  CLEAR     63  54  72 SW5       29.96R
LAKE FOREST FR   N/A     62  47  58 CALM      29.85R
SANTA ANA        N/A     63  55  74 CALM      29.91R
HUNTINGTON BCH   N/A     61  58  90 SW8       29.97R
LOS ALAMITOS   FAIR      62  53  71 W7        29.95
FULLERTON      CLEAR     66  52  60 W6        29.94R
LONG BEACH     CLEAR     63  55  75 NW8       29.95R
L.A. AP        PTCLDY    59  55  87 W10       29.96R
L.A. DOWNTOWN  CLEAR     62  52  69 W3        29.95R

$$

THE INLAND EMPIRE

CITY           SKY/WX    TMP DP  RH WIND       PRES   REMARKS
CORONA         CLEAR     68  47  46 W3        29.95R
CHINO          CLEAR     66  47  50 W3        29.96R
ONTARIO        PTCLDY    67  46  47 W7        29.95R
SAN BERNARDINO CLEAR     68  36  30 CALM      29.96R
RIVERSIDE AP   CLEAR     70  47  43 VRB5      29.95R
MARCH ARB      CLEAR     67  33  28 W1        29.96R
HORSETHIEF CYN   N/A     63  27  26 SW3       29.91R
MENIFEE          N/A     67  50  53 S2        30.01R
HEMET EAST       N/A     65  30  26 CALM      29.95R
FRENCH VALLEY  FAIR      63  43  48 S3        29.97R
TEMECULA         N/A     66  49  53 CALM      29.93R

$$

SAN BERNARDINO AND RIVERSIDE COUNTY MOUNTAINS

CITY           SKY/WX    TMP DP  RH WIND       PRES   REMARKS
BIG BEAR AP    CLEAR     43  21  42 CALM      30.16R

$$

SOUTHERN DESERT INCLUDING THE COACHELLA VALLEY

CITY           SKY/WX    TMP DP  RH WIND       PRES   REMARKS
PALM SPRINGS   CLEAR     84  27  12 NW13G21   29.83R
THOUSAND PALMS   N/A     81  32  17 NW13      29.80R
THERMAL        CLEAR     81  31  16 N12       29.78R
BLYTHE         CLEAR     83  20   9 SW9       29.80R
IMPERIAL AP    CLEAR     77  32  19 SW8       29.81R
EL CENTRO NAS  CLEAR     77  27  15 SW9       29.82R
YUMA AZ        CLEAR     77  39  25 S7        29.84R
MEXICALI       CLEAR     72  43  35 SE3       29.83R

$$

UPPER DESERT

CITY           SKY/WX    TMP DP  RH WIND       PRES   REMARKS
VICTORVILLE AP CLEAR     66  25  20 CALM      29.97R
HESPERIA         N/A     65  34  32 SW7       30.02R
APPLE VALLEY     N/A     66  32  28 S2        30.02R
PALMDALE       CLEAR     67  24  19 SW20G26   29.95R
LANCASTER      CLEAR     66  27  23 SW16      29.96R
DAGGETT        CLEAR     78  20  11 SW16      29.88R
29 PALMS N     CLEAR     74  25  16 SW14      29.94R
NEEDLES        CLEAR     81  10   7 W7        29.79R

$$

REGIONAL REPORTS

CITY           SKY/WX    TMP DP  RH WIND       PRES   REMARKS
SANTA BARBARA  CLEAR     58  53  84 SE3       29.94R
SANDBERG       CLEAR     62  25  24 S3        30.07R
MT. WILSON       N/A     52  30  43 W6          N/A
LAS VEGAS NV   CLEAR     79  13   8 S12       29.80R
PHOENIX AZ     CLEAR     80  17   9 SW6       29.81R
TIJUANA        CLEAR     63  50  63 W9        29.99R
ENSENADA NW      N/A     64  32  30 E7        29.95R

$$

OFFSHORE ISLANDS

CITY           SKY/WX    TMP DP  RH WIND       PRES   REMARKS
CATALINA ARPT  CLEAR     59  41  51 W10       29.99R
SAN NICOLAS IS CLEAR    N/A N/A N/A NW10      29.96R

$$

MARINE AND OFFSHORE BUOY REPORTS

STATION/POSITION SKY/WX   TEMP    WIND        PRES    SWELL
                          AIR SEA DIR/SP/G            HT/PER/DIR
                          (F)     (DEG/KT/KT) (MB)    (FT/S/D)
TANNER BANKS               59 62  320/ 12/ 14 1015.0R   7/320/15
S CLEMENTE BASIN           62 65  300/ 14/ 16 1014.2R   5/310/15
SAN NICOLAS IS.               59                N/A     5/290/14
SO. S. ROSA ISLA           56 60  300/ 17/ 19 1014.2R   7/15
W. S. BARBARA CH           54 55  320/ 19/ 23 1013.9R   7/310/13
S. MONICA BASIN            60 63  270/ 10/ 10 1014.4R   3/220/15
S PEDRO CHANNEL               61                N/A     2/260/15
DANA POINT                    64                N/A     2/210/17
CMP PENDLETON NS              63                N/A     2/220/15
OCEANSIDE OFFSHR              65                N/A     2/250/14
TORREY PINES OTR              64                N/A     3/270/14
LA JOLLA 1                 63 54  310/  4/  5 1014.1R
MISSION BAY BUOY              63                N/A     3/270/14
SAN DIEGO BAY                 68              1014.5R
POINT LOMA SOUTH              65                N/A     3/280/14

$$



USA.gov is the U.S. government's official web portal to all federal, state and local government web resources and services.